Regional Weather Roundup
Issued by NWS Portland, ME

Home | Current Version | Previous Version | Text Only | Print | Product List | Glossary On
Versions: 1 2 3 4 5 6 7 8 9 10 11 12 13 14 15 16 17 18 19 20 21 22 23 24 25 26 27 28 29 30 31 32 33 34 35 36 37 38 39 40 41 42 43 44 45 46 47 48 49 50
000
ASUS41 KGYX 291510
RWRGYX
WEATHER ROUNDUP FOR MAINE AND NEW HAMPSHIRE
NATIONAL WEATHER SERVICE GRAY ME
1100 AM EDT FRI MAY 29 2015

MEZ002-005-006-010-012-015-018-020-021-024-026-027-029-291600-
MAINE

CITY           SKY/WX    TMP DP  RH WIND       PRES   REMARKS
PORTLAND       PTSUNNY   76  62  62 E6        30.30F
SANFORD        CLOUDY    72  55  56 NE3       30.31F
BAR HARBOR     CLOUDY    70  63  78 NE6       30.29S
WISCASSET      PTSUNNY   75  59  57 E7        30.30F
ROCKLAND       SUNNY     70  59  68 NE7       30.28S
FRYEBURG       MOSUNNY   77  56  48 E7        30.30F
LEWISTONAUBURN MOSUNNY   72  55  56 N9        30.30F
AUGUSTA        MOSUNNY   71  55  56 VRB3      30.30F
WATERVILLE     SUNNY     70  52  52 NE3       30.28S
BANGOR         MOSUNNY   70  58  65 E5        30.30S
GREENVILLE       N/A     67  52  58 VRB3      30.29F
MILLINOCKET    SUNNY     69  54  58 CALM      30.31F
HOULTON        SUNNY     69  54  58 CALM      30.30S
PRESQUE ISLE   SUNNY     66  39  37 CALM      30.31F
FRENCHVILLE    SUNNY     63  41  44 VRB3      30.30F
CARIBOU        SUNNY     66  43  43 CALM      30.30F
$$

NHZ002-005-008-009-011-012-014-291600-
NEW HAMPSHIRE

CITY           SKY/WX    TMP DP  RH WIND       PRES   REMARKS
PORTSMOUTH     PTSUNNY   73  59  61 E10       30.29S
ROCHESTER      CLOUDY    73  58  59 VRB3      30.29F
NASHUA         PTSUNNY   73  58  59 NE3       30.30F
MANCHESTER     PTSUNNY   74  57  55 E7        30.28F
CONCORD        CLOUDY    75  56  51 SE5       30.29F
LACONIA        SUNNY     72  55  56 N7        30.28F
PLYMOUTH       FAIR      73  60  64 E3        30.29F
BERLIN         SUNNY     71  54  54 S7        30.30F
WHITEFIELD     SUNNY     71  54  54 N3        30.30F
JAFFREY        PTSUNNY   71  56  58 CALM      30.32S
KEENE          SUNNY     73  57  56 SW6       30.31F
LEBANON        SUNNY     74  54  49 NW6       30.30F
MT WASHINGTON  MOSUNNY   52  46  82 SE3         N/A  VSB 3/4
$$

VTZ005-007-008-291600-
VERMONT

CITY           SKY/WX    TMP DP  RH WIND       PRES   REMARKS
MONTPELIER     SUNNY     68  53  58 CALM      30.35F
BURLINGTON     MOSUNNY   72  57  59 CALM      30.29F
$$

MAZ007-012-024-CTZ003-RIZ002-NYZ038-NYZ072-291600-
SOUTHERN NEW ENGLAND AND NY

CITY           SKY/WX    TMP DP  RH WIND       PRES   REMARKS
BOSTON         PTSUNNY   69  58  67 E16       30.31R
WORCESTER      MOSUNNY   71  56  58 VRB3      30.32S
NANTUCKET      SUNNY     74  59  59 VRB6      30.29R
PROVIDENCE     MOSUNNY   76  57  51 MISG      30.29S
HARTFORD       MOSUNNY   74  58  57 NE5       30.29F
ALBANY         MOSUNNY   74  55  51 CALM      30.30F
NEW YORK CITY  MOSUNNY   74  55  51 NE9       30.29F
$$

ANZ081-ANZ082-ANZ150-NHZ014-MEZ023>029-291600-
COASTAL MARINE OBSERVATIONS

STATION/POSITION TIME  TEMP    WIND        PRES    WAVE
                       AIR SEA DIR/SP/G            HT/PER
                 (UTC) (F)     (DEG/KT/KT) (MB)    (FT/S)
MOUNT DESERT ROC 1500   54      40/  7/  9   N/A
MATINICUS ROCK   1500   63      CALM  /  2   N/A
ISLE OF SHOALS   1500   64      40/ 12/ 13   N/A
JEFFREYS LEDGE   1403      51                N/A     2/ 8
CASHES LEDGE BUO 1450   54 51                N/A     2/ 9
GEORGES BANK BUO 1450   57 52  230/  6/  8   N/A     3/ 7
$$

.............KEY..............
   WCI - WIND CHILL
   TC  - TEMPERATURE IN CELSIUS
   VSB - VISIBILITY IN MILES
   HX  - HEAT INDEX
   FAIR- INDICATES FEW OR NO CLOUDS BELOW 12,000 FT, WITH NO
         SIGNIFICANT WEATHER AND/OR OBSTRUCTIONS TO VISIBILITY.




USA.gov is the U.S. government's official web portal to all federal, state and local government web resources and services.